Regional Weather Roundup
Issued by NWS

Home | Current Version | Previous Version | Graphics & Text | Print | Product List | Glossary On
Versions: 1 2 3 4 5 6 7 8 9 10 11 12 13 14 15 16 17 18 19 20 21 22 23 24 25 26 27 28 29 30 31 32 33 34 35 36 37 38 39 40 41 42 43 44 45 46 47 48 49 50
000
ASUS43 KMPX 300601
RWRMN
WEATHER ROUNDUP FOR MINNESOTA
NATIONAL WEATHER SERVICE TWIN CITIES/CHANHASSEN MN
100 AM CDT TUE AUG 30 2016


NOTE: "FAIR" INDICATES FEW OR NO CLOUDS BELOW 12,000 FEET WITH NO
SIGNIFICANT WEATHER AND/OR OBSTRUCTIONS TO VISIBILITY. N/A MEANS
CURRENT SKY AND/OR WEATHER CONDITIONS ARE NOT AVAILABLE.

MNZ060>063-068>070-300700-
   Twin Cities Metro

CITY           SKY/WX    TMP DP  RH WIND       PRES   REMARKS
TWIN CITIES    TSTM      68  65  90 N10       30.24R
6HR MIN TEMP:  67; 6HR MAX TEMP:  84; 6HR PCP:  1.22;

ST PAUL        LGT RAIN  70  68  93 W9        30.25R
CRYSTAL        TSTM      68  64  87 SE13      30.19F FOG
BLAINE         RAIN      70  68  94 SE9       30.21F
LAKEVILLE      CLOUDY    70  66  88 N18G28    30.22R THUNDER
EDEN PRAIRIE   LGT RAIN  69  65  86 NE13      30.20S
6HR MIN TEMP:  69; 6HR MAX TEMP:  82; 6HR PCP:  0.29;

LAKEVILLE      CLOUDY    70  66  88 N18G28    30.22R THUNDER
SOUTH ST PAUL  CLOUDY    70  69  97 N3        30.23R
LAKE ELMO      RAIN      68  66  94 CALM      30.24R
$$
MNZ001>005-007-008-013>017-022>024-027-028-300700-
   Northwest Minnesota

CITY           SKY/WX    TMP DP  RH WIND       PRES   REMARKS
BEMIDJI        FAIR      55  53  92 W3        30.21R
HALLOCK        FAIR      54  48  82 N5        30.20S
ROSEAU         FAIR      54  48  82 CALM      30.20S
WARROAD        FAIR      54  50  87 NW5       30.20S
THIEF RVR FALL FAIR      55  54  96 CALM      30.22R
CROOKSTON      FAIR      57  52  82 CALM      30.22R
FOSSTON        FAIR      54  52  94 CALM      30.22S
DETROIT LAKES  FAIR      63  55  77 CALM      30.22R
MOORHEAD       FAIR      55  52  88 N5        30.21S
PARK RAPIDS    FAIR      64  57  78 N6        30.22R
MAHNOMEN       FAIR      57  56  96 CALM      30.21S
$$
MNZ006-009>011-018-025>026-300700-
   North Central Minnesota

CITY           SKY/WX    TMP DP  RH WIND       PRES   REMARKS
BAUDETTE       FAIR      54  52  93 W3        30.18R
FLAG ISLAND    FAIR      61  54  77 W3        30.18R
INTL FALLS     FAIR      54  53  97 CALM      30.17R
6HR MIN TEMP:  54; 6HR MAX TEMP:  75;

WASKISH        FAIR      61  55  82 NW5       30.20R
BIG FORK       FAIR      61  55  82 CALM      30.19R
LONGVILLE      FAIR      61  59  94 CALM      30.20R FOG
GRAND RAPIDS   FAIR      65  61  87 NW7       30.20R
CRANE LAKE     FAIR      55  55 100 CALM      30.17R
COOK           FAIR      63  61  94 W3        30.17R
WALKER         FAIR      58  57  96 CALM      30.21R
$$
MNZ012-019>021-037-300700-
   Northeast Minnesota

CITY           SKY/WX    TMP DP  RH WIND       PRES   REMARKS
DULUTH         FAIR      66  65  96 SW5       30.15R
6HR MIN TEMP:  66; 6HR MAX TEMP:  80; 6HR PCP:  0.73;

ELY            FOG       61  61 100 CALM      30.15R VSB 1/2
HIBBING        FAIR      61  60  97 NW6       30.16R
EVELETH        FAIR      67  64  90 NW7       30.16R
DULUTH HARBOR  FAIR      66  64  94 S9        30.14R
TWO HARBORS    FAIR      70  64  83 S6        30.11R
SILVER BAY     FAIR      70  66  88 CALM      30.10R
GRAND MARAIS     N/A     65  65 100 CALM      30.08S
G MARAIS ARPRT FAIR      64  61  88 CALM      30.15R FOG
$$
MNZ029>031-032-039>041-046>048-054>057-064-300700-
   West Central Minnesota

CITY           SKY/WX    TMP DP  RH WIND       PRES   REMARKS
FERGUS FALLS   FAIR      64  63  94 N6        30.21R
WHEATON        FAIR      64  61  88 CALM      30.21R
MORRIS         FAIR      66  64  94 CALM      30.20R
ALEXANDRIA     FAIR      68  63  84 NE9       30.21R
ELBOW LAKE     FAIR      64  62  96 E5        30.20R
WADENA         FAIR      61  61 100 VRB3      30.21R
GLENWOOD       FAIR      68  64  88 N9        30.19S
APPLETON       MOCLDY    72  66  83 N7        30.18S
BENSON         FAIR      66  63  88 N6        30.18S
ORTONVILLE     MOCLDY    70  64  83 CALM      30.20R
MADISON        FAIR      72  68  88 N6        30.18R
WILLMAR        LGT RAIN  73  70  88 NE5       30.18R
$$
MNZ033>034-036-042>043-049>051-058-059-300700-
   Central Minnesota

CITY           SKY/WX    TMP DP  RH WIND       PRES   REMARKS
ST CLOUD       FAIR      66  66 100 CALM      30.15F
6HR MIN TEMP:  66; 6HR MAX TEMP:  82; 6HR PCP:  4.03;

SAUK CENTRE    FAIR      70  67  90 N5        30.18F
PAYNESVILLE    CLOUDY    69  69 100 SE10G21   30.18S
AITKIN         FAIR      66  61  82 NW3       30.17R
PINE RIVER     FAIR      63  63 100 NW3       30.23R
BRAINERD       FAIR      66  64  93 NW5       30.19R
STAPLES        FAIR      61  61 100 CALM      30.21R
LONG PRAIRIE   FAIR      66  64  94 N3        30.20S
LITTLE FALLS   FAIR      64  63  94 CALM      30.19R
LITCHFIELD     TSTM      70  68  94 E13G20    30.18F
BUFFALO        LGT RAIN  68  64  88 S7        30.16F
MAPLE LAKE     CLOUDY    68  67  96 S7        30.15F
HUTCHINSON     CLOUDY    68  68  98 E16       30.20R
$$
MNZ037-044-045-052-053-300700-
   East Central Minnesota

CITY           SKY/WX    TMP DP  RH WIND       PRES   REMARKS
PRINCETON      FAIR      66  64  94 CALM      30.17S
MORA           FAIR      64  64 100 CALM      30.19F
CAMBRIDGE      FAIR      70  63  78 CALM      30.15S
RUSH CITY      FAIR      66  64  93 CALM      30.17S
MOOSE LAKE     CLOUDY    63  63 100 SW5       30.16R
HINCKLEY       FAIR      64  64 100 N3        30.17S
CLOQUET        FAIR      66  63  88 W9        30.15S
MCGREGOR       FAIR      68  64  88 W3        30.18R
$$
MNZ071>073-080-081-089-090-097-098-300700-
   Southwest Minnesota

CITY           SKY/WX    TMP DP  RH WIND       PRES   REMARKS
MONTEVIDEO     FAIR      72  70  94 NE10      30.19R
GRANITE FALLS  MOCLDY    75  72  92 NW6       30.17R
CANBY          FAIR      72  69  90 NW6       30.20R
MARSHALL       MOCLDY    74  71  91 NW10      30.18R
REDWOOD FALLS  MOCLDY    74  68  81 SW8       30.15R
OLIVIA         CLOUDY    72  68  88 W3        30.15R THUNDER
PIPESTONE        N/A     70  66  88 S1        30.19S
WINDOM         FAIR      72  70  94 SW5       30.17S
WORTHINGTON    FAIR      71  70  96 SW8       30.19F
JACKSON        FAIR      72  68  88 SW8       30.19R
TRACY          MOCLDY    72  69  89 W5        30.18R
SLAYTON        FAIR      70  70 100 SW6       30.20R
$$
MNZ065>067-074>077-082>085-091>093-300700-
   South Central Minnesota

CITY           SKY/WX    TMP DP  RH WIND       PRES   REMARKS
NEW ULM        FAIR      72  70  94 CALM      30.16R
ST JAMES       FAIR      70  68  94 CALM      30.17R
FAIRMONT       FAIR      70  68  93 S5        30.18R
GLENCOE        CLOUDY    67  67 100 NE9G18    30.22R
FARIBAULT      FAIR      66  66 100 CALM      30.19R
OWATONNA       FAIR      68  64  88 CALM      30.19R
WASECA         FAIR      64  63  94 S3        30.20R
ALBERT LEA     FAIR      70  68  94 S5        30.20R
$$
MNZ078>079-086>088-094>096-300700-
   Southeast Minnesota

CITY           SKY/WX    TMP DP  RH WIND       PRES   REMARKS
ROCHESTER      FAIR      68  68 100 S5        30.21R FOG
6HR MIN TEMP:  68; 6HR MAX TEMP:  79;

RED WING       FAIR      72  64  78 N8        30.18R
DODGE CENTER   FAIR      66  64  94 CALM      30.21R
WINONA         FAIR      70  68  94 CALM      30.19R FOG
AUSTIN         FAIR      68  66  94 CALM      30.20R FOG
PRESTON        FAIR      69  67  95 W3        30.21R FOG
$$
ABBREVIATIONS USED IN REMARKS
   TC - TEMPERATURES IN CELSIUS
  WCI - WIND CHILL INDEX
   HX - HEAT INDEX
  VSB - VISIBILITY
$$




USA.gov is the U.S. government's official web portal to all federal, state and local government web resources and services.